Showing default

LEMUR 2 OBA-NI-JESU, 58902

Orbit data source: Space-Track

LEMUR 2 OBA-NI-JESU, 58902 is an American payload satellite in SSO that was launched on Wed, 31 Jan 2024 UTC via an ELECTRON launch vehicle from the Rocket Lab Launch Complex (RLLC). Payload-class satellites include a variety of spacecraft equipped with specific instruments for various scientific and technological missions. These include communications satellites like Starlink; space stations such as the ISS; scientific satellites like the Hubble; Earth observation satellites from companies like Planet Labs, Umbra, and HawkEye 360; GPS; miniature CubeSats for education and research; and military/defense satellites.

Loading next visibility...
Identifier
58902, 2024-022D
Orbit
SSO
Last TLE update
9 hours ago
Origin
Manufacturer
Spire/Glasgow
Mission
Operational Commercial Early Warn
Bus & Motor
CUBESAT 3U, Unknown motor
Mass
~25 kg wet, ~25 kg dry
Launch date (UTC)
2024-01-31 (1 year ago)
Launch vehicle
ELECTRON
Launch site
Rocket Lab Launch Complex (RLLC)
Object type
Payload
Rocket body
Debris
Shape & HBR
Box + 2 Pan, 1 m
Radar Cross Section
0.146 m², Medium (>0.1 m² and < 1m²)

Expand to show TLE details & history

TLE from 9 hours ago
0 LEMUR 2 OBA-NI-JESU
1 58902U 24022D   25182.13631498  .00019550  00000-0  52444-3 0  9999
2 58902  97.4428  28.2736 0006410 258.0920 101.9606 15.37985497 78674
Epoch: 2025-07-01T03:16Z
TLE epoch observation values (Epoch: 2025-07-01T03:16:17.614Z)
Latitude
-0.00003°
Longitude
59.76411°
Altitude
456.091 km
Speed
7.638 km/s
True Right ascension
01h 53m 05s
True Declination
0° 00' 00"
Sunlit
Object was in daylight at epoch
Visualization orbit readout
Latitude
-29.62122°
Longitude
64.39045°
Altitude
461.996 km
Speed
7.635 km/s
Apparent Right ascension
05h 52m 17s
Apparent Declination
-67° 48' 45"
Sunlit
Object is in daylight
Visualization observer readout
Local Sidereal Time
00:09:28
Azimuth
152.659° SSE
Elevation
-34.922°
Doppler factor
1
Orbital elements
Apogee altitude
453.387 km
Perigee altitude
444.634 km
Semi-major axis
6,827.148 km
Eccentricity
0.00064
Inclination
97.4428°
RAAN
28.2736°
Arg. of periapsis
258.092°
True anomaly
Unknown
Mean anomaly
101.9606°
Eccentric anomaly
Unknown
Mean motion
3.84755 °/min
Orbital period
93.57 mins
BSTAR
0.00052444
Loading maneuver chart data...
Loading SW <> Apogee altitude chart data...
Loading historical data...
Loading historical data...
Loading historical data...
Loading historical data...
Loading historical data...
Loading historical data...
Loading historical data...

LEMUR 2 OBA-NI-JESU Visibility forecast

Observer location: undefined°, undefined°

Span
Click to sort rows by Start time (UTC) header in descending order
Start Az.
Max El. time (UTC)
Max El. Az.
Max El.
End time (UTC)
End Az.
4 mins2025-07-01 14:20:41.169Z215.7° SW2025-07-01 14:22:41.169Z276.076° WNW26.298°2025-07-01 14:24:41.169Z319.916° NNW
4 mins2025-07-02 03:15:41.169Z334.105° NNW2025-07-02 03:17:41.169Z282.033° WNW23.953°2025-07-02 03:19:41.169Z237.088° WSW
|